| time (UTC) | temp F | wind direction | speed MPH | gust MPH | rain 1hr in | rain 24hr in | rain mn in | humidity % | barometer mb |
| 20260503021853 | 52 | 227 | 0.0 | 0.0 | 0.00 | 0.00 | 0.00 | 83 | 1009.4 |
| 20260503021358 | 52 | 227 | 0.0 | 0.0 | 0.00 | 0.00 | 0.00 | 83 | 1009.5 |
| 20260503020844 | 52 | 227 | 0.0 | 0.0 | 0.00 | 0.00 | 0.00 | 83 | 1009.6 |
| 20260503020345 | 52 | 227 | 0.0 | 0.0 | 0.00 | 0.00 | 0.00 | 83 | 1009.8 |
| 20260503015855 | 52 | 227 | 0.0 | 0.0 | 0.00 | 0.00 | 0.00 | 83 | 1009.8 |
| 20260503015341 | 52 | 227 | 0.0 | 0.0 | 0.00 | 0.00 | 0.00 | 82 | 1009.9 |
| 20260503014846 | 52 | 227 | 0.0 | 0.0 | 0.00 | 0.00 | 0.00 | 82 | 1009.9 |
| 20260503014353 | 52 | 227 | 0.0 | 0.0 | 0.00 | 0.00 | 0.00 | 82 | 1010.0 |
| 20260503013900 | 52 | 227 | 0.0 | 0.0 | 0.00 | 0.00 | 0.00 | 82 | 1010.0 |
| 20260503013405 | 52 | 227 | 0.0 | 2.0 | 0.00 | 0.00 | 0.00 | 82 | 1010.0 |
| 20260503012849 | 52 | 227 | 0.0 | 2.0 | 0.00 | 0.00 | 0.00 | 82 | 1009.9 |
| 20260503012355 | 52 | 227 | 0.0 | 0.0 | 0.00 | 0.00 | 0.00 | 82 | 1010.0 |
| 20260503011858 | 52 | 227 | 0.0 | 3.0 | 0.00 | 0.00 | 0.00 | 82 | 1010.0 |
| 20260503011344 | 52 | 227 | 1.0 | 3.0 | 0.00 | 0.00 | 0.00 | 82 | 1009.9 |
| 20260503010909 | 52 | 219 | 0.0 | 2.0 | 0.00 | 0.00 | 0.00 | 82 | 1009.9 |
| 20260503010409 | 52 | 219 | 0.0 | 2.0 | 0.00 | 0.00 | 0.00 | 82 | 1009.7 |
| 20260503005900 | 52 | 219 | 0.0 | 1.0 | 0.00 | 0.00 | 0.00 | 82 | 1009.6 |
| 20260503005346 | 52 | 219 | 0.0 | 1.0 | 0.00 | 0.00 | 0.00 | 82 | 1009.5 |
| 20260503004849 | 52 | 219 | 0.0 | 1.0 | 0.00 | 0.00 | 0.00 | 82 | 1009.4 |
| 20260503004355 | 52 | 219 | 0.0 | 1.0 | 0.00 | 0.00 | 0.00 | 82 | 1009.4 |
| 20260503003841 | 52 | 219 | 0.0 | 1.0 | 0.00 | 0.00 | 0.00 | 82 | 1009.4 |
| 20260503003346 | 52 | 219 | 0.0 | 1.0 | 0.00 | 0.00 | 0.00 | 82 | 1009.4 |
| 20260503002850 | 52 | 219 | 0.0 | 4.0 | 0.00 | 0.00 | 0.00 | 81 | 1009.4 |
| 20260503002418 | 52 | 219 | 1.0 | 4.0 | 0.00 | 0.00 | 0.00 | 81 | 1009.4 |
| 20260503001841 | 52 | 218 | 0.0 | 3.0 | 0.00 | 0.00 | 0.00 | 81 | 1009.4 |
| 20260503001346 | 52 | 218 | 0.0 | 4.0 | 0.00 | 0.00 | 0.00 | 81 | 1009.3 |
| 20260503000851 | 52 | 218 | 1.0 | 4.0 | 0.00 | 0.00 | 0.00 | 81 | 1009.3 |
| 20260503000351 | 52 | 216 | 1.0 | 3.0 | 0.00 | 0.00 | 0.00 | 81 | 1009.2 |
| 20260502235842 | 52 | 216 | 1.0 | 4.0 | 0.00 | 0.00 | 0.00 | 81 | 1009.2 |
| 20260502235349 | 52 | 216 | 3.0 | 4.0 | 0.00 | 0.00 | 0.00 | 81 | 1009.2 |
| 20260502234854 | 52 | 292 | 1.0 | 3.0 | 0.00 | 0.00 | 0.00 | 81 | 1009.2 |
| 20260502234342 | 52 | 292 | 0.0 | 2.0 | 0.00 | 0.00 | 0.00 | 81 | 1009.1 |
| 20260502233849 | 52 | 292 | 0.0 | 2.0 | 0.00 | 0.00 | 0.00 | 81 | 1009.1 |
| 20260502233347 | 53 | 292 | 0.0 | 2.0 | 0.00 | 0.00 | 0.00 | 81 | 1009.1 |
| 20260502232855 | 52 | 292 | 0.0 | 3.0 | 0.00 | 0.00 | 0.00 | 81 | 1009.1 |
| 20260502232341 | 52 | 292 | 1.0 | 4.0 | 0.00 | 0.00 | 0.00 | 81 | 1009.1 |
| 20260502231907 | 52 | 296 | 0.0 | 2.0 | 0.00 | 0.00 | 0.00 | 81 | 1009.0 |
| 20260502231351 | 52 | 296 | 0.0 | 2.0 | 0.00 | 0.00 | 0.00 | 81 | 1009.0 |
| 20260502230910 | 52 | 296 | 0.0 | 2.0 | 0.00 | 0.00 | 0.00 | 81 | 1009.0 |
| 20260502230350 | 52 | 296 | 0.0 | 2.0 | 0.00 | 0.00 | 0.00 | 81 | 1009.0 |
| 20260502225840 | 52 | 296 | 1.0 | 3.0 | 0.00 | 0.00 | 0.00 | 82 | 1009.0 |
| 20260502225346 | 53 | 296 | 0.0 | 3.0 | 0.00 | 0.00 | 0.00 | 82 | 1009.0 |
| 20260502224851 | 53 | 296 | 0.0 | 1.0 | 0.00 | 0.00 | 0.00 | 82 | 1009.1 |
| 20260502224357 | 53 | 296 | 0.0 | 3.0 | 0.00 | 0.00 | 0.00 | 82 | 1009.0 |
| 20260502223920 | 53 | 296 | 0.0 | 4.0 | 0.00 | 0.00 | 0.00 | 81 | 1009.0 |
| 20260502223343 | 53 | 324 | 1.0 | 4.0 | 0.00 | 0.00 | 0.00 | 81 | 1009.1 |
| 20260502222849 | 53 | 325 | 2.0 | 3.0 | 0.00 | 0.00 | 0.00 | 81 | 1009.1 |
| 20260502222357 | 53 | 326 | 1.0 | 5.0 | 0.00 | 0.00 | 0.00 | 80 | 1009.0 |
| 20260502221840 | 53 | 326 | 3.0 | 5.0 | 0.00 | 0.00 | 0.00 | 80 | 1009.0 |
| 20260502221346 | 54 | 327 | 0.0 | 2.0 | 0.00 | 0.00 | 0.00 | 79 | 1009.1 |
| 20260502220854 | 54 | 327 | 0.0 | 8.0 | 0.00 | 0.00 | 0.00 | 77 | 1009.1 |
| 20260502220412 | 54 | 311 | 2.0 | 8.0 | 0.00 | 0.00 | 0.00 | 76 | 1009.1 |
| 20260502215901 | 54 | 311 | 3.0 | 8.0 | 0.00 | 0.00 | 0.00 | 74 | 1009.1 |
| 20260502215348 | 55 | 325 | 4.0 | 8.0 | 0.00 | 0.00 | 0.00 | 73 | 1009.1 |
| 20260502214912 | 55 | 336 | 0.0 | 8.0 | 0.00 | 0.00 | 0.00 | 72 | 1009.1 |
| 20260502214356 | 55 | 336 | 2.0 | 8.0 | 0.00 | 0.00 | 0.00 | 70 | 1009.1 |
| 20260502213905 | 55 | 311 | 3.0 | 7.0 | 0.00 | 0.00 | 0.00 | 69 | 1009.1 |
| 20260502213349 | 56 | 233 | 3.0 | 9.0 | 0.00 | 0.00 | 0.00 | 68 | 1009.0 |
| 20260502212855 | 56 | 237 | 4.0 | 11.0 | 0.00 | 0.00 | 0.00 | 67 | 1009.0 |
| 20260502212342 | 56 | 195 | 3.0 | 11.0 | 0.00 | 0.00 | 0.00 | 67 | 1008.9 |
| 20260502211850 | 56 | 229 | 4.0 | 8.0 | 0.00 | 0.00 | 0.00 | 67 | 1008.9 |
| 20260502211355 | 57 | 232 | 2.0 | 8.0 | 0.00 | 0.00 | 0.00 | 66 | 1008.9 |
| 20260502210841 | 57 | 232 | 3.0 | 7.0 | 0.00 | 0.00 | 0.00 | 66 | 1008.8 |
| 20260502210343 | 57 | 234 | 3.0 | 9.0 | 0.00 | 0.00 | 0.00 | 65 | 1008.8 |
| 20260502205916 | 58 | 219 | 6.0 | 10.0 | 0.00 | 0.00 | 0.00 | 64 | 1008.9 |
| 20260502205402 | 58 | 219 | 2.0 | 10.0 | 0.00 | 0.00 | 0.00 | 64 | 1008.9 |
| 20260502204845 | 58 | 214 | 3.0 | 8.0 | 0.00 | 0.00 | 0.00 | 64 | 1008.8 |
| 20260502204352 | 58 | 233 | 4.0 | 12.0 | 0.00 | 0.00 | 0.00 | 63 | 1008.8 |
| 20260502203859 | 58 | 132 | 5.0 | 12.0 | 0.00 | 0.00 | 0.00 | 62 | 1008.9 |
| 20260502203344 | 59 | 93 | 4.0 | 11.0 | 0.00 | 0.00 | 0.00 | 62 | 1008.9 |
| 20260502202851 | 59 | 227 | 3.0 | 11.0 | 0.00 | 0.00 | 0.00 | 62 | 1008.9 |
| 20260502202340 | 59 | 222 | 2.0 | 10.0 | 0.00 | 0.00 | 0.00 | 63 | 1009.0 |
| 20260502201844 | 59 | 226 | 3.0 | 10.0 | 0.00 | 0.00 | 0.00 | 63 | 1009.0 |
| 20260502201350 | 58 | 208 | 3.0 | 10.0 | 0.00 | 0.00 | 0.00 | 64 | 1009.0 |
| 20260502200857 | 58 | 195 | 3.0 | 15.0 | 0.00 | 0.00 | 0.00 | 64 | 1009.1 |
| 20260502200359 | 58 | 162 | 3.0 | 15.0 | 0.00 | 0.00 | 0.00 | 63 | 1009.1 |
| 20260502195850 | 58 | 234 | 5.0 | 11.0 | 0.00 | 0.00 | 0.00 | 62 | 1009.1 |
| 20260502195358 | 58 | 197 | 6.0 | 11.0 | 0.00 | 0.00 | 0.00 | 60 | 1009.2 |
| 20260502194904 | 58 | 266 | 3.0 | 14.0 | 0.00 | 0.00 | 0.00 | 60 | 1009.3 |
| 20260502194409 | 58 | 236 | 4.0 | 14.0 | 0.00 | 0.00 | 0.00 | 60 | 1009.3 |
| 20260502193854 | 57 | 219 | 2.0 | 11.0 | 0.00 | 0.00 | 0.00 | 62 | 1009.4 |
| 20260502193401 | 57 | 226 | 4.0 | 11.0 | 0.00 | 0.00 | 0.00 | 65 | 1009.5 |
| 20260502192848 | 56 | 224 | 5.0 | 10.0 | 0.00 | 0.00 | 0.00 | 67 | 1009.6 |
| 20260502192356 | 56 | 236 | 4.0 | 11.0 | 0.00 | 0.00 | 0.00 | 69 | 1009.7 |
| 20260502191900 | 56 | 232 | 4.0 | 11.0 | 0.00 | 0.00 | 0.00 | 70 | 1009.7 |
| 20260502191347 | 55 | 211 | 4.0 | 15.0 | 0.00 | 0.00 | 0.00 | 71 | 1009.8 |
| 20260502190855 | 55 | 226 | 4.0 | 15.0 | 0.00 | 0.00 | 0.00 | 71 | 1009.8 |
| 20260502190354 | 55 | 227 | 4.0 | 9.0 | 0.00 | 0.00 | 0.00 | 71 | 1009.8 |
| 20260502185845 | 55 | 234 | 4.0 | 8.0 | 0.00 | 0.00 | 0.00 | 71 | 1009.7 |
| 20260502185350 | 55 | 242 | 1.0 | 8.0 | 0.00 | 0.00 | 0.00 | 71 | 1009.8 |
| 20260502184855 | 55 | 297 | 4.0 | 9.0 | 0.00 | 0.00 | 0.00 | 71 | 1009.8 |
| 20260502184357 | 55 | 218 | 4.0 | 9.0 | 0.00 | 0.00 | 0.00 | 70 | 1009.8 |
| 20260502183844 | 55 | 115 | 4.0 | 9.0 | 0.00 | 0.00 | 0.00 | 70 | 1009.9 |
| 20260502183349 | 55 | 244 | 2.0 | 8.0 | 0.00 | 0.00 | 0.00 | 70 | 1009.9 |
| 20260502182424 | 56 | 254 | 5.0 | 12.0 | 0.00 | 0.00 | 0.00 | 67 | 1009.8 |
| 20260502181925 | 56 | 216 | 5.0 | 12.0 | 0.00 | 0.00 | 0.00 | 67 | 1009.9 |
| 20260502181409 | 56 | 232 | 5.0 | 13.0 | 0.00 | 0.00 | 0.00 | 66 | 1009.9 |
| 20260502180913 | 56 | 234 | 2.0 | 13.0 | 0.00 | 0.00 | 0.00 | 65 | 1009.9 |
| 20260502180352 | 56 | 217 | 5.0 | 13.0 | 0.00 | 0.00 | 0.00 | 64 | 1010.1 |
| 20260502170417 | 57 | 232 | 6.0 | 10.0 | 0.00 | 0.00 | 0.00 | 67 | 1010.3 |
| 20260502163846 | 56 | 292 | 2.0 | 5.0 | 0.00 | 0.00 | 0.00 | 71 | 1010.3 |
| 20260502163352 | 56 | 292 | 1.0 | 5.0 | 0.00 | 0.00 | 0.00 | 72 | 1010.2 |
| 20260502162917 | 56 | 292 | 2.0 | 5.0 | 0.00 | 0.00 | 0.00 | 73 | 1010.2 |
| 20260502162421 | 56 | 292 | 0.0 | 3.0 | 0.00 | 0.00 | 0.00 | 74 | 1010.2 |
| 20260502161905 | 56 | 292 | 1.0 | 5.0 | 0.00 | 0.00 | 0.00 | 74 | 1010.3 |
| 20260502161352 | 56 | 292 | 2.0 | 6.0 | 0.00 | 0.00 | 0.00 | 74 | 1010.3 |
| 20260502160858 | 55 | 292 | 4.0 | 6.0 | 0.00 | 0.00 | 0.00 | 76 | 1010.5 |
| 20260502160412 | 55 | 293 | 4.0 | 6.0 | 0.00 | 0.00 | 0.00 | 77 | 1010.5 |
| 20260502151846 | 56 | 341 | 3.0 | 5.0 | 0.00 | 0.00 | 0.00 | 80 | 1011.0 |
| 20260502151413 | 55 | 5 | 1.0 | 4.0 | 0.00 | 0.00 | 0.00 | 80 | 1010.7 |
| 20260502150900 | 55 | 5 | 0.0 | 3.0 | 0.00 | 0.00 | 0.00 | 82 | 1010.8 |
| 20260502150344 | 54 | 5 | 1.0 | 3.0 | 0.00 | 0.00 | 0.00 | 82 | 1010.9 |
| 20260502130401 | 49 | 338 | 1.0 | 3.0 | 0.00 | 0.01 | 0.00 | 83 | 1012.0 |
| 20260502123400 | 50 | 338 | 1.0 | 5.0 | 0.00 | 0.01 | 0.00 | 86 | 1011.9 |
| 20260502122906 | 51 | 310 | 2.0 | 4.0 | 0.00 | 0.01 | 0.00 | 86 | 1011.5 |
| 20260502122352 | 50 | 311 | 0.0 | 4.0 | 0.00 | 0.01 | 0.00 | 85 | 1011.3 |
| 20260502121918 | 50 | 311 | 1.0 | 5.0 | 0.00 | 0.01 | 0.00 | 85 | 1011.4 |
| 20260502121343 | 50 | 307 | 1.0 | 7.0 | 0.00 | 0.01 | 0.00 | 85 | 1011.5 |
| 20260502120849 | 50 | 309 | 3.0 | 7.0 | 0.00 | 0.01 | 0.00 | 85 | 1011.4 |
| 20260502120412 | 50 | 298 | 0.0 | 5.0 | 0.00 | 0.01 | 0.00 | 86 | 1011.1 |
| 20260502115920 | 50 | 295 | 1.0 | 5.0 | 0.00 | 0.01 | 0.00 | 86 | 1011.0 |
| 20260502115402 | 50 | 294 | 1.0 | 5.0 | 0.00 | 0.01 | 0.00 | 85 | 1010.9 |
| 20260502114846 | 50 | 272 | 2.0 | 5.0 | 0.00 | 0.01 | 0.00 | 85 | 1011.3 |
| 20260502114352 | 50 | 265 | 1.0 | 3.0 | 0.00 | 0.01 | 0.00 | 85 | 1011.0 |
| 20260502113857 | 50 | 266 | 0.0 | 6.0 | 0.00 | 0.01 | 0.00 | 85 | 1011.1 |
| 20260502113423 | 50 | 266 | 0.0 | 6.0 | 0.00 | 0.01 | 0.00 | 85 | 1011.2 |
| 20260502112847 | 50 | 235 | 1.0 | 3.0 | 0.00 | 0.01 | 0.00 | 84 | 1011.0 |
| 20260502112354 | 50 | 234 | 0.0 | 4.0 | 0.00 | 0.01 | 0.00 | 84 | 1010.9 |
| 20260502111859 | 50 | 234 | 1.0 | 4.0 | 0.00 | 0.01 | 0.00 | 84 | 1011.0 |
| 20260502111346 | 50 | 229 | 0.0 | 4.0 | 0.00 | 0.01 | 0.00 | 84 | 1011.0 |
| 20260502110851 | 50 | 229 | 2.0 | 6.0 | 0.00 | 0.01 | 0.00 | 83 | 1011.0 |
| 20260502110349 | 50 | 225 | 1.0 | 6.0 | 0.00 | 0.01 | 0.00 | 83 | 1011.0 |
| 20260502105857 | 50 | 229 | 4.0 | 6.0 | 0.00 | 0.01 | 0.00 | 82 | 1011.2 |
| 20260502105404 | 50 | 236 | 0.0 | 3.0 | 0.00 | 0.01 | 0.00 | 82 | 1010.7 |
| 20260502104848 | 50 | 234 | 2.0 | 4.0 | 0.00 | 0.01 | 0.00 | 82 | 1010.8 |
| 20260502104354 | 50 | 234 | 0.0 | 4.0 | 0.00 | 0.01 | 0.00 | 82 | 1010.6 |
| 20260502103901 | 49 | 240 | 1.0 | 3.0 | 0.00 | 0.01 | 0.00 | 82 | 1010.8 |
| 20260502103408 | 49 | 236 | 1.0 | 4.0 | 0.00 | 0.01 | 0.00 | 82 | 1010.6 |
| 20260502102853 | 49 | 236 | 1.0 | 4.0 | 0.00 | 0.01 | 0.00 | 82 | 1010.5 |
| 20260502102400 | 49 | 238 | 2.0 | 4.0 | 0.00 | 0.01 | 0.00 | 82 | 1010.6 |
| 20260502101922 | 49 | 238 | 1.0 | 3.0 | 0.00 | 0.01 | 0.00 | 82 | 1010.5 |
| 20260502101345 | 49 | 238 | 1.0 | 3.0 | 0.00 | 0.01 | 0.00 | 82 | 1010.3 |
| 20260502100913 | 49 | 238 | 0.0 | 3.0 | 0.00 | 0.01 | 0.00 | 82 | 1010.3 |
| 20260502100354 | 49 | 238 | 2.0 | 3.0 | 0.00 | 0.01 | 0.00 | 82 | 1010.4 |
| 20260502091401 | 49 | 239 | 0.0 | 4.0 | 0.00 | 0.01 | 0.00 | 78 | 1010.6 |
| 20260502090842 | 49 | 238 | 1.0 | 6.0 | 0.00 | 0.01 | 0.00 | 78 | 1010.7 |
| 20260502090342 | 49 | 232 | 2.0 | 6.0 | 0.00 | 0.01 | 0.00 | 77 | 1010.9 |
| 20260502071410 | 50 | 286 | 0.0 | 3.0 | 0.00 | 0.01 | 0.00 | 72 | 1010.1 |
| 20260502070853 | 50 | 286 | 1.0 | 3.0 | 0.00 | 0.01 | 0.00 | 72 | 1010.5 |
| 20260502070352 | 49 | 286 | 1.0 | 5.0 | 0.00 | 0.01 | 0.00 | 71 | 1010.6 |
| 20260502065901 | 49 | 284 | 1.0 | 5.0 | 0.00 | 0.01 | 0.00 | 71 | 1010.8 |
| 20260502065347 | 49 | 327 | 1.0 | 5.0 | 0.00 | 0.01 | 0.00 | 71 | 1010.8 |
| 20260502064851 | 49 | 254 | 1.0 | 5.0 | 0.00 | 0.01 | 0.00 | 70 | 1010.7 |
| 20260502064357 | 49 | 220 | 0.0 | 2.0 | 0.00 | 0.01 | 0.00 | 70 | 1010.6 |
| 20260502063900 | 48 | 220 | 0.0 | 1.0 | 0.00 | 0.01 | 0.00 | 69 | 1010.5 |
| 20260502063342 | 48 | 220 | 0.0 | 1.0 | 0.00 | 0.01 | 0.00 | 68 | 1010.3 |
| 20260502062849 | 48 | 220 | 0.0 | 0.0 | 0.00 | 0.01 | 0.00 | 68 | 1010.3 |
| 20260502062356 | 48 | 220 | 0.0 | 0.0 | 0.00 | 0.01 | 0.00 | 67 | 1010.2 |
| 20260502061859 | 48 | 220 | 0.0 | 1.0 | 0.00 | 0.01 | 0.00 | 67 | 1010.2 |
| 20260502061343 | 48 | 220 | 0.0 | 1.0 | 0.00 | 0.01 | 0.00 | 67 | 1010.3 |
| 20260502060911 | 48 | 220 | 0.0 | 1.0 | 0.00 | 0.01 | 0.00 | 67 | 1010.3 |
| 20260502060348 | 48 | 220 | 0.0 | 2.0 | 0.00 | 0.01 | 0.00 | 67 | 1010.2 |
| 20260502055859 | 48 | 220 | 0.0 | 2.0 | 0.00 | 0.01 | 0.00 | 67 | 1010.3 |
| 20260502055343 | 48 | 220 | 0.0 | 0.0 | 0.00 | 0.01 | 0.00 | 66 | 1010.4 |
| 20260502054847 | 48 | 220 | 0.0 | 0.0 | 0.00 | 0.01 | 0.00 | 66 | 1010.5 |
| 20260502054353 | 49 | 220 | 0.0 | 0.0 | 0.00 | 0.01 | 0.00 | 66 | 1010.4 |
| 20260502053900 | 49 | 220 | 0.0 | 0.0 | 0.00 | 0.01 | 0.00 | 66 | 1010.3 |
| 20260502053400 | 49 | 220 | 0.0 | 0.0 | 0.00 | 0.01 | 0.00 | 65 | 1010.4 |
| 20260502052843 | 49 | 220 | 0.0 | 0.0 | 0.00 | 0.01 | 0.00 | 65 | 1010.4 |
| 20260502052351 | 49 | 220 | 0.0 | 1.0 | 0.00 | 0.01 | 0.00 | 65 | 1010.4 |
| 20260502051918 | 49 | 220 | 0.0 | 1.0 | 0.00 | 0.01 | 0.00 | 65 | 1010.4 |
| 20260502051401 | 49 | 220 | 0.0 | 0.0 | 0.00 | 0.01 | 0.00 | 65 | 1010.4 |
| 20260502050845 | 49 | 220 | 0.0 | 0.0 | 0.00 | 0.01 | 0.00 | 65 | 1010.3 |
| 20260502050344 | 49 | 220 | 0.0 | 0.0 | 0.00 | 0.01 | 0.00 | 65 | 1010.3 |
| 20260502045855 | 49 | 220 | 0.0 | 0.0 | 0.00 | 0.01 | 0.00 | 65 | 1010.3 |
| 20260502045358 | 49 | 220 | 0.0 | 0.0 | 0.00 | 0.01 | 0.00 | 64 | 1010.4 |
| 20260502044920 | 49 | 220 | 0.0 | 1.0 | 0.00 | 0.01 | 0.00 | 64 | 1010.4 |
| 20260502044342 | 49 | 220 | 0.0 | 0.0 | 0.00 | 0.01 | 0.00 | 64 | 1010.5 |
| 20260502043911 | 50 | 220 | 0.0 | 0.0 | 0.00 | 0.01 | 0.00 | 63 | 1010.6 |
| 20260502043353 | 50 | 220 | 0.0 | 0.0 | 0.00 | 0.01 | 0.00 | 63 | 1010.6 |
| 20260502042857 | 50 | 220 | 0.0 | 0.0 | 0.00 | 0.01 | 0.00 | 64 | 1010.6 |
| 20260502042402 | 50 | 220 | 0.0 | 0.0 | 0.00 | 0.01 | 0.00 | 63 | 1010.6 |
| 20260502041843 | 50 | 220 | 0.0 | 0.0 | 0.00 | 0.01 | 0.00 | 63 | 1010.5 |
| 20260502041351 | 50 | 220 | 0.0 | 0.0 | 0.00 | 0.01 | 0.00 | 63 | 1010.5 |
| 20260502040856 | 50 | 220 | 0.0 | 0.0 | 0.00 | 0.01 | 0.00 | 63 | 1010.6 |
| 20260502040353 | 50 | 220 | 0.0 | 0.0 | 0.00 | 0.01 | 0.00 | 63 | 1010.6 |
| 20260502035857 | 50 | 220 | 0.0 | 1.0 | 0.00 | 0.01 | 0.01 | 63 | 1010.6 |
| 20260502035343 | 50 | 220 | 0.0 | 3.0 | 0.00 | 0.01 | 0.01 | 63 | 1010.6 |
| 20260502034848 | 51 | 220 | 0.0 | 3.0 | 0.00 | 0.01 | 0.01 | 64 | 1010.5 |
| 20260502034353 | 51 | 218 | 0.0 | 5.0 | 0.00 | 0.01 | 0.01 | 66 | 1010.6 |
| 20260502033858 | 51 | 218 | 0.0 | 5.0 | 0.00 | 0.01 | 0.01 | 66 | 1010.6 |
| 20260502033400 | 51 | 321 | 1.0 | 2.0 | 0.00 | 0.01 | 0.01 | 66 | 1010.7 |
| 20260502032845 | 51 | 321 | 0.0 | 0.0 | 0.00 | 0.01 | 0.01 | 65 | 1010.5 |
| 20260502032411 | 51 | 321 | 0.0 | 0.0 | 0.00 | 0.01 | 0.01 | 64 | 1010.3 |
| 20260502031855 | 51 | 321 | 0.0 | 0.0 | 0.00 | 0.01 | 0.01 | 65 | 1010.3 |
| 20260502031400 | 51 | 321 | 0.0 | 3.0 | 0.00 | 0.01 | 0.01 | 65 | 1010.2 |
| 20260502030902 | 51 | 321 | 0.0 | 3.0 | 0.00 | 0.01 | 0.01 | 66 | 1010.3 |
| 20260502030359 | 51 | 321 | 0.0 | 0.0 | 0.00 | 0.01 | 0.01 | 64 | 1010.2 |
| 20260502025848 | 51 | 321 | 0.0 | 0.0 | 0.00 | 0.01 | 0.01 | 64 | 1010.2 |
| 20260502025414 | 51 | 321 | 0.0 | 0.0 | 0.00 | 0.01 | 0.01 | 63 | 1010.2 |
| 20260502024916 | 52 | 321 | 0.0 | 0.0 | 0.00 | 0.01 | 0.01 | 63 | 1010.3 |
| 20260502024419 | 52 | 321 | 0.0 | 0.0 | 0.00 | 0.01 | 0.01 | 63 | 1010.3 |
| 20260502023901 | 52 | 321 | 0.0 | 0.0 | 0.00 | 0.01 | 0.01 | 62 | 1010.4 |
| 20260502023344 | 52 | 321 | 0.0 | 0.0 | 0.00 | 0.01 | 0.01 | 62 | 1010.3 |
| 20260502022850 | 52 | 321 | 0.0 | 0.0 | 0.00 | 0.01 | 0.01 | 61 | 1010.2 |
| 20260502022355 | 52 | 321 | 0.0 | 0.0 | 0.00 | 0.01 | 0.01 | 61 | 1010.2 |